Information on these data can be found in provided Readme document
Contact Info: Zachary Fasnacht (zachary.fasnacht@ssaihq.com); Nickolay Krotkov (nickolay.a.krotkov@nasa.gov); Lok Lamsal (lok.lamsal@nasa.gov)

FillValue: -999.
ScaleFactor: 1e15
Units: molecules/cm^2

Date(yyyy-mm-dd),City,Country,LonCenter,LatCenter,BoundingCoordinates,Median,Q1,Q3,Mean,Baseline_Median,Baseline_Q1,Baseline_Q3,Baseline_Mean,NumGoodSamples,NumTotalSamples
2015-01-01,Harare,Zimbabwe,31.04948,-17.8282,[30.54948 -18.3282 31.54948 -17.3282],0.818,0.355,1.326,0.707,0.574,0.151,0.959,0.57,47.0,556.0
2015-01-02,Harare,Zimbabwe,31.04948,-17.8282,[30.54948 -18.3282 31.54948 -17.3282],0.65,0.048,1.261,0.616,0.571,0.136,0.979,0.576,55.0,547.0
2015-01-03,Harare,Zimbabwe,31.04948,-17.8282,[30.54948 -18.3282 31.54948 -17.3282],0.759,0.291,1.261,0.696,0.568,0.165,0.978,0.574,75.0,556.0
2015-01-04,Harare,Zimbabwe,31.04948,-17.8282,[30.54948 -18.3282 31.54948 -17.3282],0.52,-0.153,0.962,0.46,0.546,0.119,0.941,0.545,94.0,530.0
2015-01-05,Harare,Zimbabwe,31.04948,-17.8282,[30.54948 -18.3282 31.54948 -17.3282],0.52,-0.153,0.962,0.46,0.534,0.146,0.933,0.535,94.0,543.0
2015-01-06,Harare,Zimbabwe,31.04948,-17.8282,[30.54948 -18.3282 31.54948 -17.3282],0.317,-0.21,0.941,0.402,0.461,0.084,0.918,0.517,77.0,532.0
2015-01-07,Harare,Zimbabwe,31.04948,-17.8282,[30.54948 -18.3282 31.54948 -17.3282],0.363,-0.2,0.941,0.392,0.482,0.067,0.954,0.532,105.0,560.0
2015-01-08,Harare,Zimbabwe,31.04948,-17.8282,[30.54948 -18.3282 31.54948 -17.3282],0.369,-0.208,0.941,0.379,0.438,0.029,0.929,0.511,109.0,542.0
2015-01-09,Harare,Zimbabwe,31.04948,-17.8282,[30.54948 -18.3282 31.54948 -17.3282],0.363,-0.208,0.941,0.403,0.438,0.006,0.936,0.514,121.0,551.0
2015-01-10,Harare,Zimbabwe,31.04948,-17.8282,[30.54948 -18.3282 31.54948 -17.3282],0.363,-0.208,0.941,0.403,0.44,0.018,0.946,0.513,121.0,520.0
2015-01-11,Harare,Zimbabwe,31.04948,-17.8282,[30.54948 -18.3282 31.54948 -17.3282],0.45,-0.21,0.941,0.4,0.446,0.016,0.928,0.495,134.0,506.0
2015-01-12,Harare,Zimbabwe,31.04948,-17.8282,[30.54948 -18.3282 31.54948 -17.3282],0.45,-0.21,0.941,0.4,0.456,0.036,0.927,0.514,134.0,520.0
2015-01-13,Harare,Zimbabwe,31.04948,-17.8282,[30.54948 -18.3282 31.54948 -17.3282],0.45,-0.21,0.941,0.4,0.491,0.04,0.94,0.512,134.0,500.0
2015-01-14,Harare,Zimbabwe,31.04948,-17.8282,[30.54948 -18.3282 31.54948 -17.3282],0.45,-0.21,0.941,0.4,0.484,0.052,0.912,0.489,134.0,530.0
2015-01-15,Harare,Zimbabwe,31.04948,-17.8282,[30.54948 -18.3282 31.54948 -17.3282],0.307,-0.313,0.88,0.294,0.454,-0.01,0.924,0.468,131.0,507.0
2015-01-16,Harare,Zimbabwe,31.04948,-17.8282,[30.54948 -18.3282 31.54948 -17.3282],0.307,-0.297,0.844,0.307,0.486,-0.012,0.913,0.485,157.0,519.0
2015-01-17,Harare,Zimbabwe,31.04948,-17.8282,[30.54948 -18.3282 31.54948 -17.3282],0.28,-0.297,0.834,0.28,0.497,0.005,0.903,0.481,145.0,519.0
2015-01-18,Harare,Zimbabwe,31.04948,-17.8282,[30.54948 -18.3282 31.54948 -17.3282],0.095,-0.297,0.598,0.187,0.461,0.026,0.857,0.461,146.0,511.0
2015-01-19,Harare,Zimbabwe,31.04948,-17.8282,[30.54948 -18.3282 31.54948 -17.3282],0.247,-0.204,0.616,0.228,0.498,0.051,0.859,0.483,141.0,523.0
2015-01-20,Harare,Zimbabwe,31.04948,-17.8282,[30.54948 -18.3282 31.54948 -17.3282],0.319,-0.198,0.763,0.292,0.518,0.094,0.888,0.509,148.0,497.0
2015-01-21,Harare,Zimbabwe,31.04948,-17.8282,[30.54948 -18.3282 31.54948 -17.3282],0.319,-0.198,0.763,0.292,0.514,0.094,0.92,0.513,148.0,510.0
2015-01-22,Harare,Zimbabwe,31.04948,-17.8282,[30.54948 -18.3282 31.54948 -17.3282],0.333,-0.164,0.781,0.319,0.509,0.088,0.919,0.504,125.0,497.0
2015-01-23,Harare,Zimbabwe,31.04948,-17.8282,[30.54948 -18.3282 31.54948 -17.3282],0.333,-0.164,0.776,0.32,0.514,0.089,0.921,0.505,134.0,525.0
2015-01-24,Harare,Zimbabwe,31.04948,-17.8282,[30.54948 -18.3282 31.54948 -17.3282],0.447,-0.1,0.86,0.42,0.535,0.097,0.934,0.527,137.0,507.0
2015-01-25,Harare,Zimbabwe,31.04948,-17.8282,[30.54948 -18.3282 31.54948 -17.3282],0.456,-0.023,0.862,0.476,0.559,0.118,0.969,0.564,160.0,544.0
2015-01-26,Harare,Zimbabwe,31.04948,-17.8282,[30.54948 -18.3282 31.54948 -17.3282],0.447,0.031,0.869,0.486,0.565,0.133,0.996,0.578,150.0,542.0
2015-01-27,Harare,Zimbabwe,31.04948,-17.8282,[30.54948 -18.3282 31.54948 -17.3282],0.456,0.048,0.86,0.485,0.557,0.132,0.984,0.573,156.0,526.0
2015-01-28,Harare,Zimbabwe,31.04948,-17.8282,[30.54948 -18.3282 31.54948 -17.3282],0.456,0.048,0.86,0.485,0.551,0.121,0.98,0.558,156.0,539.0
2015-01-29,Harare,Zimbabwe,31.04948,-17.8282,[30.54948 -18.3282 31.54948 -17.3282],0.457,0.095,0.858,0.489,0.566,0.148,0.995,0.568,178.0,518.0
2015-01-30,Harare,Zimbabwe,31.04948,-17.8282,[30.54948 -18.3282 31.54948 -17.3282],0.566,0.223,0.86,0.557,0.603,0.197,0.989,0.601,169.0,548.0
2015-01-31,Harare,Zimbabwe,31.04948,-17.8282,[30.54948 -18.3282 31.54948 -17.3282],0.586,0.223,0.997,0.591,0.613,0.177,1.039,0.615,149.0,526.0
2015-02-01,Harare,Zimbabwe,31.04948,-17.8282,[30.54948 -18.3282 31.54948 -17.3282],0.589,0.2,0.997,0.591,0.627,0.188,1.088,0.636,174.0,541.0
2015-02-02,Harare,Zimbabwe,31.04948,-17.8282,[30.54948 -18.3282 31.54948 -17.3282],0.634,0.262,1.051,0.645,0.607,0.17,1.07,0.624,162.0,541.0
2015-02-03,Harare,Zimbabwe,31.04948,-17.8282,[30.54948 -18.3282 31.54948 -17.3282],0.657,0.269,1.082,0.691,0.584,0.161,1.05,0.625,173.0,532.0
2015-02-04,Harare,Zimbabwe,31.04948,-17.8282,[30.54948 -18.3282 31.54948 -17.3282],0.643,0.256,1.079,0.655,0.563,0.15,1.037,0.615,185.0,545.0
2015-02-05,Harare,Zimbabwe,31.04948,-17.8282,[30.54948 -18.3282 31.54948 -17.3282],0.656,0.241,1.13,0.69,0.553,0.153,1.051,0.616,202.0,523.0
2015-02-06,Harare,Zimbabwe,31.04948,-17.8282,[30.54948 -18.3282 31.54948 -17.3282],0.657,0.224,1.129,0.684,0.555,0.153,1.061,0.617,197.0,538.0
2015-02-07,Harare,Zimbabwe,31.04948,-17.8282,[30.54948 -18.3282 31.54948 -17.3282],0.663,0.241,1.13,0.701,0.551,0.143,1.05,0.613,184.0,527.0
2015-02-08,Harare,Zimbabwe,31.04948,-17.8282,[30.54948 -18.3282 31.54948 -17.3282],0.643,0.115,1.13,0.623,0.534,0.133,1.037,0.596,177.0,555.0
2015-02-09,Harare,Zimbabwe,31.04948,-17.8282,[30.54948 -18.3282 31.54948 -17.3282],0.634,0.057,1.122,0.59,0.489,0.101,1.016,0.568,154.0,539.0
2015-02-10,Harare,Zimbabwe,31.04948,-17.8282,[30.54948 -18.3282 31.54948 -17.3282],0.595,-0.019,1.122,0.571,0.472,0.091,0.965,0.544,180.0,546.0
2015-02-11,Harare,Zimbabwe,31.04948,-17.8282,[30.54948 -18.3282 31.54948 -17.3282],0.586,-0.025,1.13,0.575,0.492,0.104,0.996,0.556,174.0,516.0
2015-02-12,Harare,Zimbabwe,31.04948,-17.8282,[30.54948 -18.3282 31.54948 -17.3282],0.586,0.006,1.091,0.565,0.509,0.107,0.984,0.564,201.0,502.0
2015-02-13,Harare,Zimbabwe,31.04948,-17.8282,[30.54948 -18.3282 31.54948 -17.3282],0.602,-0.044,1.14,0.578,0.507,0.103,0.997,0.567,179.0,516.0
2015-02-14,Harare,Zimbabwe,31.04948,-17.8282,[30.54948 -18.3282 31.54948 -17.3282],0.617,-0.01,1.094,0.581,0.525,0.119,0.983,0.566,189.0,498.0
2015-02-15,Harare,Zimbabwe,31.04948,-17.8282,[30.54948 -18.3282 31.54948 -17.3282],0.617,-0.01,1.122,0.568,0.514,0.121,0.971,0.553,177.0,529.0
2015-02-16,Harare,Zimbabwe,31.04948,-17.8282,[30.54948 -18.3282 31.54948 -17.3282],0.617,-0.01,1.14,0.577,0.51,0.118,0.992,0.553,144.0,506.0
2015-02-17,Harare,Zimbabwe,31.04948,-17.8282,[30.54948 -18.3282 31.54948 -17.3282],0.602,0.006,1.122,0.564,0.549,0.152,0.99,0.584,157.0,519.0
2015-02-18,Harare,Zimbabwe,31.04948,-17.8282,[30.54948 -18.3282 31.54948 -17.3282],0.518,-0.01,0.988,0.512,0.529,0.152,0.992,0.579,133.0,519.0
2015-02-19,Harare,Zimbabwe,31.04948,-17.8282,[30.54948 -18.3282 31.54948 -17.3282],0.518,0.059,1.019,0.538,0.528,0.156,0.994,0.579,133.0,510.0
2015-02-20,Harare,Zimbabwe,31.04948,-17.8282,[30.54948 -18.3282 31.54948 -17.3282],0.503,0.1,0.862,0.443,0.554,0.19,0.974,0.587,131.0,520.0
2015-02-21,Harare,Zimbabwe,31.04948,-17.8282,[30.54948 -18.3282 31.54948 -17.3282],0.476,0.128,0.786,0.432,0.539,0.175,0.931,0.564,142.0,496.0
2015-02-22,Harare,Zimbabwe,31.04948,-17.8282,[30.54948 -18.3282 31.54948 -17.3282],0.476,0.128,0.786,0.432,0.535,0.18,0.935,0.569,142.0,510.0
2015-02-23,Harare,Zimbabwe,31.04948,-17.8282,[30.54948 -18.3282 31.54948 -17.3282],0.494,0.153,0.793,0.468,0.529,0.154,0.944,0.563,134.0,499.0
2015-02-24,Harare,Zimbabwe,31.04948,-17.8282,[30.54948 -18.3282 31.54948 -17.3282],0.494,0.153,0.793,0.468,0.526,0.136,0.926,0.551,134.0,527.0
2015-02-25,Harare,Zimbabwe,31.04948,-17.8282,[30.54948 -18.3282 31.54948 -17.3282],0.575,0.281,0.793,0.545,0.55,0.131,0.963,0.57,121.0,512.0
2015-02-26,Harare,Zimbabwe,31.04948,-17.8282,[30.54948 -18.3282 31.54948 -17.3282],0.505,0.153,0.751,0.479,0.503,0.101,0.882,0.529,151.0,549.0
2015-02-27,Harare,Zimbabwe,31.04948,-17.8282,[30.54948 -18.3282 31.54948 -17.3282],0.569,0.153,0.779,0.528,0.515,0.104,0.884,0.524,151.0,547.0
2015-02-28,Harare,Zimbabwe,31.04948,-17.8282,[30.54948 -18.3282 31.54948 -17.3282],0.569,0.161,0.793,0.544,0.495,0.098,0.827,0.502,164.0,532.0
2015-03-01,Harare,Zimbabwe,31.04948,-17.8282,[30.54948 -18.3282 31.54948 -17.3282],0.5,0.145,0.825,0.538,0.467,0.086,0.856,0.5,154.0,543.0
2015-03-02,Harare,Zimbabwe,31.04948,-17.8282,[30.54948 -18.3282 31.54948 -17.3282],0.477,0.153,0.878,0.526,0.43,0.05,0.831,0.475,164.0,523.0
2015-03-03,Harare,Zimbabwe,31.04948,-17.8282,[30.54948 -18.3282 31.54948 -17.3282],0.477,0.153,0.878,0.526,0.431,0.073,0.81,0.468,164.0,555.0
2015-03-04,Harare,Zimbabwe,31.04948,-17.8282,[30.54948 -18.3282 31.54948 -17.3282],0.494,0.169,0.91,0.557,0.42,0.076,0.81,0.475,161.0,532.0
2015-03-05,Harare,Zimbabwe,31.04948,-17.8282,[30.54948 -18.3282 31.54948 -17.3282],0.456,0.153,0.91,0.528,0.421,0.072,0.836,0.471,192.0,547.0
2015-03-06,Harare,Zimbabwe,31.04948,-17.8282,[30.54948 -18.3282 31.54948 -17.3282],0.5,0.161,0.928,0.55,0.379,0.024,0.796,0.442,190.0,547.0
2015-03-07,Harare,Zimbabwe,31.04948,-17.8282,[30.54948 -18.3282 31.54948 -17.3282],0.575,0.168,0.93,0.578,0.373,0.003,0.789,0.409,199.0,539.0
2015-03-08,Harare,Zimbabwe,31.04948,-17.8282,[30.54948 -18.3282 31.54948 -17.3282],0.575,0.169,0.956,0.575,0.383,0.013,0.802,0.414,209.0,550.0
2015-03-09,Harare,Zimbabwe,31.04948,-17.8282,[30.54948 -18.3282 31.54948 -17.3282],0.605,0.18,1.014,0.615,0.413,0.018,0.818,0.426,228.0,526.0
2015-03-10,Harare,Zimbabwe,31.04948,-17.8282,[30.54948 -18.3282 31.54948 -17.3282],0.605,0.18,1.014,0.615,0.408,0.027,0.811,0.425,228.0,540.0
2015-03-11,Harare,Zimbabwe,31.04948,-17.8282,[30.54948 -18.3282 31.54948 -17.3282],0.605,0.18,1.028,0.619,0.436,0.054,0.837,0.44,260.0,525.0
2015-03-12,Harare,Zimbabwe,31.04948,-17.8282,[30.54948 -18.3282 31.54948 -17.3282],0.591,0.138,1.015,0.581,0.424,0.039,0.827,0.427,280.0,553.0
2015-03-13,Harare,Zimbabwe,31.04948,-17.8282,[30.54948 -18.3282 31.54948 -17.3282],0.605,0.169,1.028,0.617,0.452,0.07,0.837,0.451,267.0,537.0
2015-03-14,Harare,Zimbabwe,31.04948,-17.8282,[30.54948 -18.3282 31.54948 -17.3282],0.603,0.168,1.032,0.596,0.453,0.071,0.842,0.453,268.0,544.0
2015-03-15,Harare,Zimbabwe,31.04948,-17.8282,[30.54948 -18.3282 31.54948 -17.3282],0.605,0.156,1.028,0.59,0.469,0.034,0.866,0.464,255.0,513.0
2015-03-16,Harare,Zimbabwe,31.04948,-17.8282,[30.54948 -18.3282 31.54948 -17.3282],0.605,0.156,1.028,0.579,0.475,0.049,0.845,0.45,280.0,499.0
2015-03-17,Harare,Zimbabwe,31.04948,-17.8282,[30.54948 -18.3282 31.54948 -17.3282],0.615,0.152,1.051,0.588,0.487,0.07,0.877,0.472,270.0,513.0
2015-03-18,Harare,Zimbabwe,31.04948,-17.8282,[30.54948 -18.3282 31.54948 -17.3282],0.605,0.152,1.032,0.584,0.496,0.067,0.936,0.486,294.0,493.0
2015-03-19,Harare,Zimbabwe,31.04948,-17.8282,[30.54948 -18.3282 31.54948 -17.3282],0.605,0.135,1.032,0.577,0.477,0.029,0.935,0.47,275.0,526.0
2015-03-20,Harare,Zimbabwe,31.04948,-17.8282,[30.54948 -18.3282 31.54948 -17.3282],0.619,0.152,1.032,0.589,0.473,0.024,0.929,0.465,255.0,504.0
2015-03-21,Harare,Zimbabwe,31.04948,-17.8282,[30.54948 -18.3282 31.54948 -17.3282],0.615,0.138,1.046,0.582,0.502,0.079,0.931,0.489,262.0,518.0
2015-03-22,Harare,Zimbabwe,31.04948,-17.8282,[30.54948 -18.3282 31.54948 -17.3282],0.595,0.135,1.027,0.563,0.508,0.102,0.934,0.509,241.0,517.0
2015-03-23,Harare,Zimbabwe,31.04948,-17.8282,[30.54948 -18.3282 31.54948 -17.3282],0.605,0.135,1.032,0.576,0.515,0.097,0.939,0.509,227.0,509.0
2015-03-24,Harare,Zimbabwe,31.04948,-17.8282,[30.54948 -18.3282 31.54948 -17.3282],0.543,0.121,1.032,0.556,0.499,0.096,0.932,0.506,217.0,522.0
2015-03-25,Harare,Zimbabwe,31.04948,-17.8282,[30.54948 -18.3282 31.54948 -17.3282],0.543,0.121,1.032,0.556,0.502,0.081,0.913,0.51,217.0,495.0
2015-03-26,Harare,Zimbabwe,31.04948,-17.8282,[30.54948 -18.3282 31.54948 -17.3282],0.524,0.093,1.01,0.526,0.479,0.044,0.895,0.471,185.0,511.0
2015-03-27,Harare,Zimbabwe,31.04948,-17.8282,[30.54948 -18.3282 31.54948 -17.3282],0.548,0.227,1.026,0.574,0.47,0.065,0.907,0.48,154.0,496.0
2015-03-28,Harare,Zimbabwe,31.04948,-17.8282,[30.54948 -18.3282 31.54948 -17.3282],0.548,0.167,1.055,0.542,0.454,0.035,0.934,0.455,172.0,523.0
2015-03-29,Harare,Zimbabwe,31.04948,-17.8282,[30.54948 -18.3282 31.54948 -17.3282],0.548,0.227,1.026,0.529,0.437,0.029,0.906,0.436,150.0,510.0
2015-03-30,Harare,Zimbabwe,31.04948,-17.8282,[30.54948 -18.3282 31.54948 -17.3282],0.524,0.122,1.007,0.507,0.458,0.018,0.909,0.429,161.0,544.0
2015-03-31,Harare,Zimbabwe,31.04948,-17.8282,[30.54948 -18.3282 31.54948 -17.3282],0.524,0.116,0.937,0.515,0.454,-0.027,0.877,0.42,136.0,546.0
2015-04-01,Harare,Zimbabwe,31.04948,-17.8282,[30.54948 -18.3282 31.54948 -17.3282],0.524,0.116,0.937,0.515,0.444,-0.04,0.855,0.395,136.0,531.0
2015-04-02,Harare,Zimbabwe,31.04948,-17.8282,[30.54948 -18.3282 31.54948 -17.3282],0.514,0.081,1.047,0.498,0.426,-0.051,0.826,0.373,112.0,543.0
2015-04-03,Harare,Zimbabwe,31.04948,-17.8282,[30.54948 -18.3282 31.54948 -17.3282],0.514,0.081,1.047,0.498,0.429,-0.046,0.848,0.375,112.0,521.0
2015-04-04,Harare,Zimbabwe,31.04948,-17.8282,[30.54948 -18.3282 31.54948 -17.3282],0.525,0.081,1.104,0.513,0.435,-0.031,0.872,0.387,100.0,549.0
2015-04-05,Harare,Zimbabwe,31.04948,-17.8282,[30.54948 -18.3282 31.54948 -17.3282],0.525,0.122,1.151,0.504,0.437,-0.04,0.892,0.39,79.0,528.0
2015-04-06,Harare,Zimbabwe,31.04948,-17.8282,[30.54948 -18.3282 31.54948 -17.3282],0.525,0.122,1.151,0.512,0.439,-0.067,0.863,0.38,78.0,541.0
2015-04-07,Harare,Zimbabwe,31.04948,-17.8282,[30.54948 -18.3282 31.54948 -17.3282],0.548,0.181,1.047,0.526,0.421,-0.093,0.847,0.374,71.0,540.0
2015-04-08,Harare,Zimbabwe,31.04948,-17.8282,[30.54948 -18.3282 31.54948 -17.3282],0.525,-0.132,1.151,0.462,0.396,-0.134,0.873,0.357,76.0,531.0
2015-04-09,Harare,Zimbabwe,31.04948,-17.8282,[30.54948 -18.3282 31.54948 -17.3282],0.525,-0.132,1.151,0.462,0.38,-0.154,0.89,0.357,76.0,546.0
2015-04-10,Harare,Zimbabwe,31.04948,-17.8282,[30.54948 -18.3282 31.54948 -17.3282],0.525,-0.132,1.151,0.462,0.408,-0.126,0.937,0.393,76.0,521.0
2015-04-11,Harare,Zimbabwe,31.04948,-17.8282,[30.54948 -18.3282 31.54948 -17.3282],0.458,-0.438,1.151,0.342,0.365,-0.162,0.853,0.369,71.0,538.0
2015-04-12,Harare,Zimbabwe,31.04948,-17.8282,[30.54948 -18.3282 31.54948 -17.3282],0.293,-0.318,0.768,0.377,0.36,-0.135,0.83,0.409,36.0,525.0
2015-04-13,Harare,Zimbabwe,31.04948,-17.8282,[30.54948 -18.3282 31.54948 -17.3282],0.293,-0.173,0.854,0.399,0.412,-0.124,0.94,0.446,40.0,550.0
2015-04-14,Harare,Zimbabwe,31.04948,-17.8282,[30.54948 -18.3282 31.54948 -17.3282],0.01,-0.703,1.161,0.336,0.403,-0.194,1.027,0.459,34.0,537.0
2015-04-15,Harare,Zimbabwe,31.04948,-17.8282,[30.54948 -18.3282 31.54948 -17.3282],0.325,-0.694,1.161,0.546,0.486,-0.088,1.123,0.547,40.0,541.0
2015-04-16,Harare,Zimbabwe,31.04948,-17.8282,[30.54948 -18.3282 31.54948 -17.3282],0.325,-0.694,1.161,0.546,0.528,-0.035,1.155,0.582,40.0,510.0
2015-04-17,Harare,Zimbabwe,31.04948,-17.8282,[30.54948 -18.3282 31.54948 -17.3282],0.519,-0.173,1.394,0.665,0.524,-0.045,1.155,0.568,66.0,495.0
2015-04-18,Harare,Zimbabwe,31.04948,-17.8282,[30.54948 -18.3282 31.54948 -17.3282],0.519,-0.173,1.394,0.665,0.49,-0.081,1.119,0.538,66.0,509.0
2015-04-19,Harare,Zimbabwe,31.04948,-17.8282,[30.54948 -18.3282 31.54948 -17.3282],0.284,-0.369,1.034,0.418,0.453,-0.122,1.079,0.507,96.0,489.0
2015-04-20,Harare,Zimbabwe,31.04948,-17.8282,[30.54948 -18.3282 31.54948 -17.3282],0.284,-0.369,0.981,0.405,0.466,-0.109,1.03,0.501,93.0,518.0
2015-04-21,Harare,Zimbabwe,31.04948,-17.8282,[30.54948 -18.3282 31.54948 -17.3282],0.458,-0.207,1.098,0.493,0.467,-0.11,1.046,0.512,105.0,501.0
2015-04-22,Harare,Zimbabwe,31.04948,-17.8282,[30.54948 -18.3282 31.54948 -17.3282],0.451,-0.221,1.098,0.477,0.479,-0.06,1.045,0.516,126.0,516.0
2015-04-23,Harare,Zimbabwe,31.04948,-17.8282,[30.54948 -18.3282 31.54948 -17.3282],0.412,-0.172,1.078,0.453,0.472,-0.059,1.029,0.513,125.0,514.0
2015-04-24,Harare,Zimbabwe,31.04948,-17.8282,[30.54948 -18.3282 31.54948 -17.3282],0.333,-0.172,1.061,0.45,0.453,-0.067,1.015,0.491,147.0,506.0
2015-04-25,Harare,Zimbabwe,31.04948,-17.8282,[30.54948 -18.3282 31.54948 -17.3282],0.333,-0.193,1.078,0.434,0.443,-0.079,1.023,0.489,161.0,520.0
2015-04-26,Harare,Zimbabwe,31.04948,-17.8282,[30.54948 -18.3282 31.54948 -17.3282],0.333,-0.172,0.979,0.418,0.464,-0.07,1.027,0.495,179.0,499.0
2015-04-27,Harare,Zimbabwe,31.04948,-17.8282,[30.54948 -18.3282 31.54948 -17.3282],0.333,-0.172,0.979,0.418,0.442,-0.074,1.009,0.469,179.0,514.0
2015-04-28,Harare,Zimbabwe,31.04948,-17.8282,[30.54948 -18.3282 31.54948 -17.3282],0.382,-0.148,0.92,0.425,0.433,-0.077,1.0,0.471,204.0,507.0
2015-04-29,Harare,Zimbabwe,31.04948,-17.8282,[30.54948 -18.3282 31.54948 -17.3282],0.416,-0.126,0.976,0.453,0.458,-0.039,1.037,0.493,231.0,533.0
2015-04-30,Harare,Zimbabwe,31.04948,-17.8282,[30.54948 -18.3282 31.54948 -17.3282],0.415,-0.142,0.963,0.418,0.428,-0.103,0.963,0.449,244.0,517.0
2015-05-01,Harare,Zimbabwe,31.04948,-17.8282,[30.54948 -18.3282 31.54948 -17.3282],0.415,-0.136,0.963,0.423,0.451,-0.072,1.015,0.466,275.0,555.0
2015-05-02,Harare,Zimbabwe,31.04948,-17.8282,[30.54948 -18.3282 31.54948 -17.3282],0.415,-0.142,0.917,0.41,0.473,-0.065,1.027,0.479,264.0,558.0
2015-05-03,Harare,Zimbabwe,31.04948,-17.8282,[30.54948 -18.3282 31.54948 -17.3282],0.416,-0.135,0.976,0.434,0.444,-0.064,1.008,0.474,288.0,543.0
2015-05-04,Harare,Zimbabwe,31.04948,-17.8282,[30.54948 -18.3282 31.54948 -17.3282],0.468,-0.024,1.06,0.492,0.461,-0.047,1.03,0.483,258.0,556.0
2015-05-05,Harare,Zimbabwe,31.04948,-17.8282,[30.54948 -18.3282 31.54948 -17.3282],0.456,-0.015,1.019,0.503,0.451,-0.067,1.029,0.476,282.0,537.0
2015-05-06,Harare,Zimbabwe,31.04948,-17.8282,[30.54948 -18.3282 31.54948 -17.3282],0.398,-0.024,0.964,0.471,0.456,-0.048,1.052,0.488,268.0,564.0
2015-05-07,Harare,Zimbabwe,31.04948,-17.8282,[30.54948 -18.3282 31.54948 -17.3282],0.449,0.013,0.963,0.483,0.463,-0.042,1.054,0.488,267.0,548.0
2015-05-08,Harare,Zimbabwe,31.04948,-17.8282,[30.54948 -18.3282 31.54948 -17.3282],0.455,0.013,0.979,0.49,0.469,-0.029,1.041,0.484,286.0,563.0
2015-05-09,Harare,Zimbabwe,31.04948,-17.8282,[30.54948 -18.3282 31.54948 -17.3282],0.455,0.013,0.979,0.485,0.493,-0.002,1.051,0.514,278.0,559.0
2015-05-10,Harare,Zimbabwe,31.04948,-17.8282,[30.54948 -18.3282 31.54948 -17.3282],0.455,-0.011,0.963,0.486,0.493,0.003,1.031,0.51,292.0,549.0
2015-05-11,Harare,Zimbabwe,31.04948,-17.8282,[30.54948 -18.3282 31.54948 -17.3282],0.455,0.003,0.964,0.495,0.501,0.011,1.056,0.516,297.0,558.0
2015-05-12,Harare,Zimbabwe,31.04948,-17.8282,[30.54948 -18.3282 31.54948 -17.3282],0.455,0.013,0.963,0.503,0.517,0.036,1.054,0.541,319.0,538.0
2015-05-13,Harare,Zimbabwe,31.04948,-17.8282,[30.54948 -18.3282 31.54948 -17.3282],0.456,0.01,1.019,0.521,0.494,0.024,1.027,0.525,284.0,547.0
2015-05-14,Harare,Zimbabwe,31.04948,-17.8282,[30.54948 -18.3282 31.54948 -17.3282],0.467,0.07,0.964,0.537,0.485,0.034,1.001,0.515,286.0,541.0
2015-05-15,Harare,Zimbabwe,31.04948,-17.8282,[30.54948 -18.3282 31.54948 -17.3282],0.467,0.079,0.989,0.558,0.508,0.044,1.041,0.538,300.0,567.0
2015-05-16,Harare,Zimbabwe,31.04948,-17.8282,[30.54948 -18.3282 31.54948 -17.3282],0.513,0.099,0.996,0.578,0.488,0.017,1.015,0.52,288.0,549.0
2015-05-17,Harare,Zimbabwe,31.04948,-17.8282,[30.54948 -18.3282 31.54948 -17.3282],0.513,0.089,0.989,0.573,0.513,0.047,1.011,0.533,304.0,555.0
2015-05-18,Harare,Zimbabwe,31.04948,-17.8282,[30.54948 -18.3282 31.54948 -17.3282],0.513,0.099,0.947,0.562,0.54,0.055,1.025,0.555,280.0,524.0
2015-05-19,Harare,Zimbabwe,31.04948,-17.8282,[30.54948 -18.3282 31.54948 -17.3282],0.513,0.089,0.964,0.551,0.552,0.057,1.041,0.562,307.0,511.0
2015-05-20,Harare,Zimbabwe,31.04948,-17.8282,[30.54948 -18.3282 31.54948 -17.3282],0.523,0.079,0.988,0.547,0.565,0.057,1.06,0.581,283.0,523.0
2015-05-21,Harare,Zimbabwe,31.04948,-17.8282,[30.54948 -18.3282 31.54948 -17.3282],0.527,0.089,0.958,0.55,0.565,0.059,1.025,0.589,313.0,503.0
2015-05-22,Harare,Zimbabwe,31.04948,-17.8282,[30.54948 -18.3282 31.54948 -17.3282],0.544,0.079,0.964,0.553,0.549,0.076,1.044,0.589,293.0,527.0
2015-05-23,Harare,Zimbabwe,31.04948,-17.8282,[30.54948 -18.3282 31.54948 -17.3282],0.561,0.102,1.063,0.59,0.587,0.125,1.091,0.619,281.0,508.0
2015-05-24,Harare,Zimbabwe,31.04948,-17.8282,[30.54948 -18.3282 31.54948 -17.3282],0.591,0.148,1.073,0.625,0.589,0.132,1.092,0.617,301.0,524.0
2015-05-25,Harare,Zimbabwe,31.04948,-17.8282,[30.54948 -18.3282 31.54948 -17.3282],0.591,0.166,1.073,0.636,0.601,0.159,1.09,0.63,288.0,523.0
2015-05-26,Harare,Zimbabwe,31.04948,-17.8282,[30.54948 -18.3282 31.54948 -17.3282],0.675,0.166,1.074,0.644,0.636,0.161,1.107,0.642,292.0,514.0
2015-05-27,Harare,Zimbabwe,31.04948,-17.8282,[30.54948 -18.3282 31.54948 -17.3282],0.707,0.194,1.154,0.672,0.626,0.166,1.124,0.642,291.0,523.0
2015-05-28,Harare,Zimbabwe,31.04948,-17.8282,[30.54948 -18.3282 31.54948 -17.3282],0.754,0.22,1.17,0.713,0.647,0.137,1.162,0.662,314.0,503.0
2015-05-29,Harare,Zimbabwe,31.04948,-17.8282,[30.54948 -18.3282 31.54948 -17.3282],0.788,0.22,1.243,0.743,0.639,0.137,1.144,0.656,280.0,513.0
2015-05-30,Harare,Zimbabwe,31.04948,-17.8282,[30.54948 -18.3282 31.54948 -17.3282],0.759,0.276,1.171,0.746,0.619,0.172,1.128,0.651,275.0,505.0
2015-05-31,Harare,Zimbabwe,31.04948,-17.8282,[30.54948 -18.3282 31.54948 -17.3282],0.754,0.251,1.18,0.73,0.652,0.176,1.139,0.674,290.0,533.0
2015-06-01,Harare,Zimbabwe,31.04948,-17.8282,[30.54948 -18.3282 31.54948 -17.3282],0.759,0.276,1.178,0.74,0.659,0.187,1.131,0.675,279.0,513.0
2015-06-02,Harare,Zimbabwe,31.04948,-17.8282,[30.54948 -18.3282 31.54948 -17.3282],0.754,0.251,1.171,0.714,0.668,0.188,1.154,0.683,310.0,553.0
2015-06-03,Harare,Zimbabwe,31.04948,-17.8282,[30.54948 -18.3282 31.54948 -17.3282],0.679,0.245,1.162,0.682,0.645,0.192,1.167,0.671,309.0,553.0
2015-06-04,Harare,Zimbabwe,31.04948,-17.8282,[30.54948 -18.3282 31.54948 -17.3282],0.679,0.245,1.171,0.679,0.647,0.191,1.16,0.659,334.0,539.0
2015-06-05,Harare,Zimbabwe,31.04948,-17.8282,[30.54948 -18.3282 31.54948 -17.3282],0.726,0.24,1.18,0.694,0.636,0.184,1.125,0.643,304.0,553.0
2015-06-06,Harare,Zimbabwe,31.04948,-17.8282,[30.54948 -18.3282 31.54948 -17.3282],0.679,0.226,1.162,0.672,0.651,0.139,1.146,0.649,333.0,535.0
2015-06-07,Harare,Zimbabwe,31.04948,-17.8282,[30.54948 -18.3282 31.54948 -17.3282],0.672,0.206,1.098,0.653,0.62,0.154,1.102,0.622,313.0,561.0
2015-06-08,Harare,Zimbabwe,31.04948,-17.8282,[30.54948 -18.3282 31.54948 -17.3282],0.672,0.251,1.098,0.65,0.62,0.162,1.112,0.635,299.0,539.0
2015-06-09,Harare,Zimbabwe,31.04948,-17.8282,[30.54948 -18.3282 31.54948 -17.3282],0.676,0.24,1.118,0.663,0.622,0.121,1.127,0.634,318.0,555.0
2015-06-10,Harare,Zimbabwe,31.04948,-17.8282,[30.54948 -18.3282 31.54948 -17.3282],0.672,0.248,1.098,0.656,0.65,0.145,1.164,0.652,307.0,554.0
2015-06-11,Harare,Zimbabwe,31.04948,-17.8282,[30.54948 -18.3282 31.54948 -17.3282],0.673,0.24,1.118,0.662,0.654,0.15,1.149,0.639,311.0,546.0
2015-06-12,Harare,Zimbabwe,31.04948,-17.8282,[30.54948 -18.3282 31.54948 -17.3282],0.652,0.192,1.096,0.619,0.667,0.154,1.16,0.645,307.0,555.0
2015-06-13,Harare,Zimbabwe,31.04948,-17.8282,[30.54948 -18.3282 31.54948 -17.3282],0.652,0.192,1.096,0.619,0.633,0.125,1.159,0.634,307.0,532.0
2015-06-14,Harare,Zimbabwe,31.04948,-17.8282,[30.54948 -18.3282 31.54948 -17.3282],0.589,0.102,1.056,0.594,0.647,0.119,1.179,0.639,279.0,543.0